Location: Gollag?dem
(16.8053°N, 80.8024°E)
Time: 12:55:26
(UTC+00:00)

H-2A R/B - Pass Details

Date: 13 August 2020
Orbit: 578 x 654 km, 98.5° (Epoch: 24 September)

Event Time Altitude Azimuth Distance (km) Brightness Sun altitude
Exits shadow 23:08:34 30° 279° (W) 1,055 2.8 -17.1°
Drops below altitude 10° 23:11:33 10° 323° (NW) 1,890 4.4 -16.5°
Sets 23:13:52 0° 334° (NNW) 2,787 5.4 -16.0°
